sat.trackr.live / text

‹ back to catalog

STARLINK-31034

NORAD 58785 · 2024-011W

PAYLOAD ACTIVE UNKNOWN

§ Identity

Operator
Country
US
Launch date
2024-01-14
Launch site
AFWTR
Launch vehicle
Mass (kg)
RCS (m²)

Purposes: comms

External: N2YO · Heavens-Above · Gunter

§ Orbital elements

Epoch: 2026-09-20T22:07:19.752096Z

Period
93.85 min
Inclination
53.1615°
Eccentricity
0.0001298
Mean motion
15.34394486 rev/d
Perigee alt
461.8 km
Apogee alt
463.6 km
Semi-major
6,840.9 km
B*
1.9389e-5
RAAN
80.0821°
Arg perigee
83.5655°
Mean anomaly
276.5496°
Rev number
15,168

§ Raw data

STARLINK-310341 58785U 24011W   26263.92175639  .00000279  00000+0  19389-4 0  99932 58785  53.1615  80.0821 0001298  83.5655 276.5496 15.34394486151684

JSON: /api/v1/satellites/58785 · /tle

For live sub-satellite position, see the globe view (requires WebGL).

§ Visibility from observer

Set your observer location to see the next 7 days of passes ≥ 10°. The values pass through the URL so the page stays shareable.

No JS? Fill the form by hand. The geolocation button needs JavaScript.